Wind_Speed
43 44 45 46 47 47 48 48 48 48 48 49 49 49 50 50 51 51 52 52 53 54 55 56 56 57 58 59 59 60 61 61 62 63 64 65 65 65 65 65 65 65
44 45 46 46 47 47 47 48 48 48 49 49 50 50 50 51 51 52 52 53 55 56 57 57 58 59 60 60 61 62 63 63 64 65 66 66 66 66 66 65 65 65
45 45 46 47 47 47 48 48 48 49 49 50 50 50 51 51 52 53 54 55 57 58 59 59 60 61 62 62 63 64 64 65 66 66 66 66 66 66 65 65 65 64
46 47 47 47 47 48 48 48 48 48 49 49 50 51 52 53 54 55 57 58 59 60 60 61 62 63 64 65 65 66 66 66 66 66 66 66 65 65 65 64 64 64
47 47 46 46 47 47 47 48 48 49 50 51 52 53 54 56 57 58 59 60 61 61 62 63 64 65 65 66 66 67 67 67 66 66 66 65 65 65 64 65 65 65
45 45 45 46 46 47 48 49 50 51 52 53 54 56 57 58 60 61 61 62 62 63 64 65 66 66 67 67 67 67 67 66 66 66 66 65 65 65 65 66 67 67
45 45 46 47 48 49 50 51 52 53 54 56 57 58 59 60 61 62 62 63 64 65 66 66 67 67 68 67 67 67 66 66 66 65 66 66 66 66 67 67 67 67
47 48 49 50 51 52 53 54 55 56 57 58 59 60 60 61 62 63 64 65 65 65 66 67 67 67 67 67 66 66 65 65 66 66 66 66 67 67 67 67 67 66
50 51 52 52 53 54 55 56 57 58 58 59 60 61 62 63 64 64 65 65 65 66 66 66 66 66 66 66 65 65 65 65 66 66 66 66 66 66 66 66 66 66
52 52 53 54 55 56 57 58 59 60 61 62 63 63 64 64 65 65 65 65 65 65 65 65 65 65 64 64 64 64 64 65 65 65 65 66 66 66 66 66 67 67
54 55 55 56 57 58 59 60 61 62 63 63 63 64 64 64 65 65 65 65 65 65 64 64 64 63 63 63 63 63 63 64 64 65 65 65 66 66 67 67 68 68
56 57 58 58 59 60 61 62 62 63 63 63 64 64 64 64 64 64 64 64 63 63 63 62 62 62 62 63 63 64 64 64 65 65 66 66 67 68 68 68 68 68
59 59 60 61 62 62 63 63 63 64 64 64 64 64 63 63 63 62 62 62 61 61 61 62 62 63 63 64 64 65 65 66 66 67 67 68 68 68 69 69 69 69
61 62 63 63 64 64 64 64 64 64 64 63 63 62 62 61 61 61 60 60 60 61 62 63 64 65 65 66 66 67 67 67 67 67 67 67 68 68 69 70 70 71
62 63 64 64 65 64 64 64 64 63 62 62 61 61 61 60 60 59 59 60 61 62 64 65 66 67 67 68 68 68 68 68 68 68 69 69 70 70 71 72 73 74
64 64 64 64 64 64 63 63 62 62 61 61 61 61 60 59 59 60 61 62 64 65 66 67 67 68 68 69 69 70 70 71 71 72 72 73 74 74 75 76 77 78
64 64 63 63 63 62 62 61 61 61 61 61 61 60 60 60 61 62 64 66 67 68 68 68 69 69 70 71 72 73 74 74 75 75 76 77 78 78 79 80 80 81
64 63 63 62 62 61 61 61 61 61 61 61 61 61 61 62 64 66 68 69 70 70 70 70 71 72 73 75 76 77 78 78 78 79 79 80 81 82 83 83 84 84
63 63 62 62 62 62 61 61 61 61 61 61 62 63 64 65 68 70 71 72 73 73 72 73 74 75 76 78 79 80 81 82 82 83 84 84 85 86 86 86 87 87
63 63 63 63 63 62 62 61 61 62 63 64 65 66 68 69 71 73 74 75 76 76 76 76 77 79 80 82 83 84 86 87 87 88 88 88 88 89 89 89 90 90
64 64 65 64 64 63 62 62 64 65 67 68 69 70 72 73 75 76 77 78 79 79 80 80 81 83 85 86 87 89 90 91 91 91 92 91 91 92 92 93 93 93
66 66 65 64 64 63 64 66 68 70 72 72 73 74 76 77 79 79 80 81 82 83 84 85 85 87 88 89 90 92 93 93 94 94 94 94 94 95 95 96 96 96
66 66 65 65 65 67 69 71 73 74 75 76 77 78 79 81 82 82 83 84 85 87 88 88 88 89 91 92 92 94 95 96 96 97 97 96 96 97 97 97 97 97
67 66 66 67 69 71 73 75 76 78 79 80 81 82 83 84 85 86 86 87 88 89 91 91 92 92 93 94 95 96 98 99 100 100 100 100 100 100 101 100 100 99
68 69 70 72 74 76 77 79 80 82 83 84 85 86 86 87 88 89 89 90 91 92 93 95 95 95 96 97 99 100 101 103 104 104 104 104 104 104 104 104 103 103
72 73 75 77 78 80 82 83 84 85 86 86 87 88 89 89 91 92 92 93 94 95 96 97 98 99 99 100 101 102 103 105 106 107 107 107 106 106 105 105 104 104
Wind_Direction
273 274 275 276 277 278 279 280 281 282 284 285 286 287 288 289 290 291 292 293 294 295 295 296 297 297 298 298 299 299 299 299 299 299 299 299 299 299 299 299 299 298
273 274 275 275 277 278 279 281 282 284 285 286 287 288 289 290 291 292 293 294 295 295 296 297 297 298 298 298 298 298 298 298 298 298 298 299 299 299 299 299 299 298
273 274 275 277 278 280 281 283 284 285 286 287 288 289 290 291 292 293 294 294 295 296 296 296 297 297 297 297 297 297 297 297 297 297 298 298 299 299 299 299 299 299
273 275 277 278 280 281 283 284 285 286 287 288 289 290 291 292 292 293 294 295 295 295 295 295 295 296 296 296 296 296 297 297 297 297 298 298 298 299 299 299 299 299
275 277 279 280 282 283 284 285 286 287 287 288 289 290 291 292 293 293 293 293 293 294 294 294 295 295 295 296 296 296 296 297 297 298 299 299 299 299 299 299 299 299
278 279 281 282 283 284 285 286 286 287 288 289 290 290 291 291 292 292 292 293 293 294 294 294 295 295 295 295 295 296 296 297 298 298 299 299 299 299 299 298 299 299
279 280 281 282 284 285 286 287 288 288 288 289 289 290 290 290 291 292 292 293 294 294 294 294 294 295 295 295 296 296 297 297 297 298 298 298 298 298 298 298 298 298
280 281 282 283 285 286 286 287 287 287 288 288 289 289 290 291 291 292 293 293 294 294 294 294 294 294 294 295 295 295 296 296 296 297 297 297 297 297 297 298 298 298
281 282 283 284 285 285 286 286 287 288 288 289 290 290 291 292 292 293 293 293 293 293 293 293 293 294 294 294 294 295 295 295 296 296 296 296 296 296 296 296 296 296
282 283 284 284 285 286 287 288 288 289 290 291 291 292 292 292 292 293 293 293 293 293 293 293 293 293 294 294 294 295 295 295 296 296 296 296 296 296 295 295 295 295
283 284 285 286 287 288 289 289 290 290 291 291 292 292 292 292 293 293 293 293 294 294 294 294 294 294 294 295 295 295 295 296 296 296 295 295 295 294 294 294 294 294
285 286 287 288 288 289 289 289 290 290 291 291 291 292 292 293 293 293 294 294 294 294 294 295 295 295 295 295 295 295 295 295 294 294 293 293 293 293 293 293 293 293
286 287 288 288 288 288 289 289 290 290 291 291 292 292 292 293 293 293 293 294 294 294 294 294 294 295 295 294 294 294 293 293 292 292 292 291 292 292 292 293 293 293
286 287 287 287 288 288 289 290 290 290 291 291 291 291 292 292 292 292 292 292 293 293 294 294 295 295 294 294 293 293 293 292 292 292 292 292 292 292 292 293 293 293
286 286 287 288 288 289 289 289 289 289 290 290 290 290 291 291 291 290 291 292 293 294 295 295 295 295 294 294 294 293 293 293 293 293 293 293 293 294 294 294 295 295
286 287 287 288 288 288 288 288 288 289 289 290 290 290 290 290 290 291 293 294 296 296 297 297 296 296 295 295 295 295 295 295 295 295 295 295 296 296 296 296 296 296
287 287 288 288 287 287 288 288 289 289 290 290 290 290 290 291 293 295 297 298 299 299 299 298 297 296 296 296 296 296 296 296 296 296 296 296 297 297 297 297 297 297
287 287 287 287 287 287 288 289 289 290 290 291 290 291 291 292 294 296 297 298 298 298 298 297 296 296 296 296 296 296 296 296 297 297 297 297 298 298 298 298 297 297
286 286 286 287 287 288 289 290 290 290 290 290 290 290 290 292 293 294 295 296 296 296 296 296 296 296 296 297 297 297 297 298 298 298 298 298 298 298 298 298 298 297
286 286 287 288 289 289 289 289 289 290 290 290 289 290 290 291 293 294 295 295 296 296 296 297 297 298 298 298 299 299 299 299 299 299 299 299 299 299 298 298 298 298
285 286 287 288 288 288 288 289 289 290 290 290 290 290 291 292 293 294 295 296 296 297 297 298 299 300 300 300 300 300 300 300 300 300 300 300 300 299 299 299 299 298
285 286 286 287 287 287 288 289 289 290 290 290 291 291 292 293 294 295 296 297 297 298 299 299 300 301 300 300 300 300 300 300 300 300 300 300 300 299 299 299 299 299
285 285 285 286 286 287 288 289 289 290 290 290 291 292 293 294 295 296 297 297 298 299 299 300 300 300 300 300 300 300 299 299 299 299 299 299 299 299 299 299 299 299
285 285 285 285 286 287 288 289 289 290 290 291 292 293 294 295 295 296 297 298 298 299 299 300 300 300 300 300 300 300 300 300 300 300 300 300 299 300 300 300 299 299
284 285 285 286 287 288 289 289 290 291 292 292 293 294 295 295 296 296 297 298 298 299 300 300 300 300 300 300 300 300 300 300 300 300 299 299 299 299 298 298 298 298
285 286 286 287 288 288 289 290 291 292 292 293 294 295 296 296 297 297 297 298 299 299 300 300 300 300 300 300 301 301 300 300 299 299 298 298 297 297 297 297 297 297
Height
5837 5836 5836 5835 5834 5833 5832 5832 5831 5830 5829 5827 5826 5825 5823 5822 5820 5818 5816 5815 5813 5811 5809 5807 5805 5803 5801 5799 5797 5795 5793 5790 5788 5785 5783 5781 5779 5776 5773 5770 5767 5764
5833 5832 5831 5830 5829 5828 5828 5827 5826 5825 5823 5822 5820 5819 5818 5816 5814 5813 5811 5809 5807 5805 5803 5801 5799 5797 5795 5793 5791 5789 5787 5784 5781 5779 5776 5774 5771 5769 5766 5763 5760 5757
5828 5827 5826 5825 5825 5824 5823 5822 5821 5819 5818 5816 5815 5813 5812 5810 5809 5807 5805 5803 5801 5799 5797 5795 5793 5791 5789 5787 5785 5783 5780 5777 5775 5772 5769 5767 5764 5761 5759 5755 5753 5750
5823 5822 5822 5821 5820 5819 5817 5816 5815 5814 5812 5811 5809 5808 5806 5805 5803 5801 5799 5797 5795 5793 5791 5789 5787 5785 5782 5780 5778 5775 5773 5770 5767 5765 5762 5760 5757 5754 5751 5748 5746 5743
5818 5817 5817 5816 5814 5813 5812 5811 5810 5808 5807 5805 5804 5802 5800 5798 5797 5795 5793 5791 5789 5787 5785 5783 5780 5778 5776 5773 5771 5768 5765 5763 5760 5757 5755 5753 5750 5747 5744 5741 5739 5736
5813 5812 5811 5810 5809 5808 5806 5805 5804 5802 5801 5799 5798 5796 5794 5792 5791 5789 5787 5785 5783 5780 5778 5775 5773 5770 5768 5766 5763 5761 5758 5755 5753 5750 5748 5746 5743 5740 5737 5734 5732 5730
5808 5807 5806 5805 5803 5802 5800 5799 5798 5796 5795 5793 5792 5790 5788 5786 5784 5782 5780 5777 5775 5773 5770 5768 5765 5762 5760 5758 5755 5753 5751 5748 5746 5743 5741 5739 5736 5734 5730 5727 5725 5723
5802 5801 5800 5799 5797 5796 5794 5793 5792 5790 5789 5787 5786 5784 5782 5780 5777 5775 5773 5770 5768 5765 5763 5760 5757 5755 5752 5750 5748 5746 5743 5741 5738 5736 5734 5732 5729 5726 5723 5720 5718 5715
5796 5795 5794 5793 5791 5790 5789 5787 5786 5784 5782 5780 5779 5777 5775 5772 5770 5768 5765 5763 5761 5758 5755 5753 5750 5748 5745 5743 5741 5739 5736 5734 5731 5729 5727 5724 5722 5719 5716 5713 5710 5708
5790 5789 5788 5787 5785 5784 5782 5780 5779 5777 5775 5773 5771 5769 5767 5765 5762 5760 5758 5755 5753 5750 5748 5745 5742 5740 5738 5735 5733 5731 5729 5727 5724 5721 5719 5716 5714 5711 5708 5706 5703 5700
5784 5782 5781 5779 5778 5776 5775 5773 5771 5769 5767 5765 5763 5761 5759 5757 5754 5752 5749 5747 5744 5742 5739 5737 5734 5732 5730 5728 5726 5723 5721 5719 5717 5714 5712 5709 5706 5703 5700 5697 5695 5692
5776 5775 5773 5772 5770 5769 5767 5766 5764 5762 5760 5757 5755 5753 5751 5748 5746 5744 5741 5739 5736 5734 5732 5729 5727 5725 5723 5720 5718 5716 5714 5712 5709 5707 5704 5702 5699 5696 5693 5690 5687 5684
5769 5768 5766 5765 5763 5761 5760 5758 5756 5754 5752 5749 5747 5745 5743 5740 5738 5736 5734 5732 5729 5727 5725 5722 5719 5717 5715 5713 5710 5708 5706 5704 5702 5699 5697 5694 5691 5688 5685 5682 5679 5676
5762 5760 5759 5757 5755 5754 5752 5750 5748 5746 5744 5742 5739 5737 5735 5733 5731 5729 5726 5724 5722 5720 5717 5714 5712 5709 5706 5704 5702 5700 5698 5696 5694 5691 5689 5687 5684 5681 5678 5674 5671 5668
5755 5753 5751 5749 5747 5746 5744 5742 5740 5738 5736 5734 5732 5730 5728 5726 5724 5722 5719 5717 5715 5712 5710 5706 5703 5700 5697 5695 5693 5691 5689 5687 5685 5682 5679 5677 5675 5672 5669 5665 5662 5659
5747 5745 5743 5741 5739 5737 5736 5734 5732 5730 5728 5726 5724 5722 5720 5718 5716 5713 5711 5709 5707 5704 5701 5698 5694 5690 5687 5685 5682 5680 5678 5677 5675 5672 5669 5666 5664 5662 5659 5656 5652 5649
5738 5736 5734 5733 5731 5729 5727 5725 5723 5722 5719 5717 5715 5713 5711 5709 5706 5704 5702 5699 5697 5694 5692 5689 5685 5681 5677 5675 5672 5669 5667 5666 5665 5662 5660 5656 5654 5651 5649 5646 5642 5638
5729 5728 5726 5724 5722 5720 5719 5717 5715 5713 5711 5709 5707 5704 5702 5700 5698 5696 5693 5690 5689 5686 5684 5681 5677 5673 5669 5666 5663 5660 5656 5655 5655 5652 5649 5647 5643 5640 5637 5634 5631 5628
5720 5719 5717 5715 5714 5712 5710 5708 5706 5704 5702 5701 5699 5697 5695 5693 5690 5688 5685 5683 5680 5678 5676 5674 5669 5664 5661 5657 5653 5650 5646 5644 5643 5641 5638 5636 5632 5628 5625 5621 5618 5615
5712 5710 5708 5706 5705 5703 5701 5699 5697 5696 5694 5693 5691 5689 5687 5685 5682 5680 5677 5673 5671 5669 5667 5665 5660 5655 5651 5647 5642 5639 5635 5632 5631 5629 5627 5624 5621 5616 5613 5610 5606 5602
5703 5701 5699 5698 5696 5694 5692 5691 5689 5687 5686 5684 5683 5681 5678 5676 5673 5671 5668 5664 5661 5658 5656 5655 5651 5644 5639 5635 5631 5626 5623 5620 5618 5616 5614 5612 5609 5605 5600 5597 5594 5590
5694 5693 5691 5689 5688 5686 5684 5682 5680 5678 5676 5675 5674 5671 5669 5666 5664 5661 5658 5654 5651 5647 5644 5644 5642 5634 5627 5623 5620 5614 5610 5608 5605 5603 5602 5600 5597 5594 5589 5586 5583 5578
5686 5685 5683 5681 5680 5678 5676 5673 5671 5669 5667 5666 5664 5662 5660 5657 5654 5651 5648 5644 5640 5636 5633 5632 5631 5626 5618 5612 5609 5604 5598 5596 5594 5590 5589 5587 5585 5582 5578 5574 5571 5567
5678 5676 5675 5673 5671 5669 5667 5664 5662 5660 5657 5655 5653 5652 5649 5646 5643 5641 5639 5635 5630 5626 5622 5620 5619 5617 5610 5602 5598 5593 5587 5583 5580 5577 5575 5573 5571 5569 5566 5562 5558 5554
5669 5667 5666 5664 5662 5659 5657 5654 5652 5650 5647 5645 5642 5640 5638 5635 5632 5629 5628 5626 5621 5615 5611 5608 5605 5604 5600 5592 5585 5581 5575 5569 5564 5562 5560 5558 5556 5555 5553 5549 5545 5540
5660 5658 5656 5654 5652 5650 5647 5644 5642 5640 5637 5634 5631 5628 5626 5623 5620 5617 5615 5615 5612 5605 5601 5597 5592 5589 5588 5582 5574 5568 5562 5555 5550 5547 5544 5541 5541 5540 5537 5535 5532 5527